Regional Weather Roundup
Issued by NWS

Home | Current Version | Previous Version | Graphics & Text | Print | Product List | Glossary On
Versions: 1 2 3 4 5 6 7 8 9 10 11 12 13 14 15 16 17 18 19 20 21 22 23 24 25 26 27 28 29 30 31 32 33 34 35 36 37 38 39 40 41 42 43 44 45 46 47 48 49 50
000
ASUS43 KMKX 290521
RWRWI

WISCONSIN REGIONAL WEATHER ROUNDUP
NATIONAL WEATHER SERVICE MILWAUKEE/SULLIVAN WI
1200 AM CDT WED MAR 29 2017

NOTE: "FAIR" INDICATES FEW OR NO CLOUDS BELOW 12,000 FEET WITH NO
SIGNIFICANT WEATHER AND/OR OBSTRUCTIONS TO VISIBILITY.

WIZ001-002-006>008-014>016-023>028-290600-
NORTHWEST WISCONSIN

CITY           SKY/WX    TMP DP  RH WIND       PRES   REMARKS
SUPERIOR ARPT  PTCLDY    35  32  91 E10       30.29S WCI  27
ASHLAND        CLEAR     33  30  88 NE7       30.28R WCI  27
HAYWARD        PTCLDY    32  23  69 N3        30.24R
SIREN          CLEAR     34  25  70 CALM      30.22S
CUMBERLAND     CLEAR     36  25  64 CALM      30.22S
RICE LAKE      CLEAR     37  28  70 CALM      30.23S
CHETEK         CLEAR     35  30  84 CALM      30.22S
LADYSMITH      CLEAR     36  28  70 E5        30.24R WCI  32
EAU CLAIRE     CLEAR     35  28  75 CALM      30.20S
MENOMONIE      CLEAR     40  31  71 CALM      30.21F
NEW RICHMOND   CLEAR     37  32  84 E3        30.21S
OSCEOLA        CLEAR     35  30  82 CALM      30.23F
$$

WIZ003>005-009-010-017-018-290600-
NORTH CENTRAL WISCONSIN

CITY           SKY/WX    TMP DP  RH WIND       PRES   REMARKS
MANITOWISH WTR CLEAR     29  28  94 CALM      30.24S
ARBOR VITAE    CLEAR     40  29  65 SE3       30.24S
WOODRUFF       CLEAR     40  29  65 SE3       30.24S
RHINELANDER    CLEAR     36  27  69 E5        30.25R WCI  32
EAGLE RIVER    CLEAR     30  26  83 CALM      30.25S
LAND O LAKES   CLEAR     29  26  90 CALM      30.27S
PHILLIPS       CLEAR     39  28  64 CALM      30.23S
TOMAHAWK       CLEAR     28  24  82 CALM      30.25R
MEDFORD        CLEAR     33  30  90 E3        30.23R
MERRILL        CLEAR     30  27  86 CALM      30.25R
$$

WIZ029-030-035-036-043>047-290600-
CENTRAL WISCONSIN

CITY           SKY/WX    TMP DP  RH WIND       PRES   REMARKS
WAUSAU         CLEAR     39  30  70 CALM      30.23R
MOSINEE        CLEAR     37  30  75 E3        30.26R
MARSHFIELD     CLEAR     42  31  64 E3        30.22R
STEVENS POINT  CLEAR     32  29  89 CALM      30.25S
WAUPACA        CLEAR     35  31  83 N3        30.26R
WAUTOMA        CLOUDY    33  29  85 CALM      30.25R
WISC RAPIDS    CLOUDY    37  30  75 CALM      30.24R
CAMP DOUGLAS   PTCLDY    34  29  81 SE5       30.22S WCI  30
$$

WIZ011>013-019>022-031-037>040-048>050-290600-
NORTHEAST WISCONSIN

CITY           SKY/WX    TMP DP  RH WIND       PRES   REMARKS
ANTIGO         CLEAR     35  28  77 CALM      30.26R
SHAWANO        CLEAR     36  33  90 CALM      30.27S
OCONTO         MOCLDY    29  29  99 CALM      30.27S VSB 3/4
STURGEON BAY   CLEAR     31  30  96 CALM      30.28R
GREEN BAY      CLEAR     35  33  92 NE6       30.27R WCI  30
MANITOWOC      CLEAR     34  31  88 N5        30.26R WCI  30
APPLETON       CLEAR     41  32  70 NE3       30.24R
CLINTONVILLE   CLEAR     34  30  86 NE3       30.26R
OSHKOSH        CLEAR     39  33  79 S3        30.23S
$$

WIZ032>034-041-042-053>061-290600-
SOUTHWEST WISCONSIN

CITY           SKY/WX    TMP DP  RH WIND       PRES   REMARKS
LA CROSSE      CLOUDY    44  35  70 SE3       30.21R
SPARTA         CLOUDY    34  32  92 CALM      30.23S
VIROQUA        CLOUDY    42  35  74 CALM      30.20F
BOSCOBEL       CLOUDY    38  35  89 CALM      30.20F
PRAIRIE DU CHI CLOUDY    41  38  90 E3        30.19S
PLATTEVILLE    CLOUDY    42  40  90 E9        30.19F
$$

WIZ056-057-062-063-064-067-068-290600-
SOUTH CENTRAL WISCONSIN

CITY           SKY/WX    TMP DP  RH WIND       PRES   REMARKS
REEDSBURG      PTCLDY    43  32  65 E5        30.23S
BARABOO/DELLS  PTCLDY    39  32  77 E5        30.23S
LONE ROCK      CLOUDY    43  35  73 E3        30.21F
MINERAL POINT  CLOUDY    45  39  81 E5        30.20F
MADISON        CLEAR     40  36  86 E3        30.23R
MIDDLETON      CLEAR     43  38  84 E5        30.23S
WATERTOWN      CLOUDY    35  35 100 E6        30.24S FOG     WCI  30
MONROE         CLOUDY    39  36  87 NE9       30.20F WCI  33
JANESVILLE     CLOUDY    36  36 100 E5        30.23S WCI  32
$$

WIZ051-052-058>065-066-070>072-290600-
SOUTHEAST WISCONSIN

CITY           SKY/WX    TMP DP  RH WIND       PRES   REMARKS
MILWAUKEE      FOG       34  32  92 N7        30.25S VSB 1/4 WCI  28
WAUKESHA       FOG       32  32 100 N5        30.25S VSB 1/4 WCI  27
MILWAUKEE/TIMM FOG       32  32 100 CALM      30.27R VSB 1/2
RACINE         FOG       33  32  96 N9        30.26S VSB 1/4 WCI  25
KENOSHA        FOG       34  34 100 CALM      30.24S VSB<1/4
FOND DU LAC    CLEAR     38  32  79 CALM      30.24S
SHEBOYGAN      CLEAR     31  30  96 CALM      30.24S FOG
WEST BEND      FOG       32  32 100 CALM      30.25S VSB 1/4
JUNEAU         CLEAR     36  33  88 E6        30.25S WCI  31
$$

LSZ147-162-290600-
LAKE SUPERIOR

STATION/POSITION TIME  TEMP    WIND        PRES    WAVE
                       AIR SEA DIR/SP/G            HT/PER
                 (UTC) (F)     (DEG/KT/KT) (MB)    (FT/S)
DEVILS ISLAND    0500   36      60/ 20/ 22 1026.7S
PORT WING        0430   35      50/ 12/ 16 1025.7R
SAXON HARBOR     0430   30     200/  3/  4 1024.7R
$$

LMZ867-665-643>646-290600-
LAKE MICHIGAN

STATION/POSITION TIME  TEMP    WIND        PRES    WAVE
                       AIR SEA DIR/SP/G            HT/PER
                 (UTC) (F)     (DEG/KT/KT) (MB)    (FT/S)
CHAMBERS ISLAND  0440   30        CALM     1025.1S
NORTHPORT PIER   0440   33     310/  4/  6 1025.4R
SISTER BAY       0351   31        CALM       N/A
KEWAUNEE LAKESHO 0454   31     310/  2/  4 1023.9F
SHEBOYGAN LAKESH 0500   33     240/  3/  3 1024.6F
PORT WASHINGTON  0440   34     260/  2/  5 1025.4F
MILWAUKEE LAKESH 0500   33     340/  6/  7   N/A
KENOSHA   LAKESH 0500   34      CALM  /  6 1024.0
$$

TC  - TEMPERATURE IN CELSIUS
VSB - VISIBILITY IN STATUTE MILES
WCI - WIND CHILL INDEX
HX  - HEAT INDEX





USA.gov is the U.S. government's official web portal to all federal, state and local government web resources and services.